CAPE
1397 1343 1422 1412 1286 1142 1003 1423 1529 1523 1608 1747 1928 1995 1962 1803 1833 1891 1945 1860 1759 1820 1851 1709 1606 1335 1194 920 1077 1036 885 858 899 831 834 961 735 569 630 614 453 334 422 769 1114 1113 1342 1395 1040 982 992 891 974 843 1021 942 891 763 768 812 819 998
1370 1393 1435 1380 1345 1285 1064 876 830 1031 1254 1576 1744 1852 1889 1762 1725 1688 1858 1813 1633 1605 1290 1402 1471 991 1016 1247 1251 1060 1088 1034 995 968 910 777 1023 970 845 730 455 249 202 418 697 1776 1475 1412 1068 985 1052 1012 747 931 962 1012 1040 716 712 856 854 1009
1447 1541 1400 1308 1294 1171 1051 964 874 780 901 1121 1339 1502 1236 1270 1265 1335 1338 990 1262 1228 946 1078 1252 953 1082 1171 1246 1118 1056 1076 1048 1106 1014 979 874 932 930 603 433 376 245 197 654 923 1316 1432 1370 999 911 1035 1171 864 888 1043 1002 930 803 788 840 968
1549 1528 1402 1308 1257 1122 1007 826 659 692 604 1042 1393 1179 1356 990 1134 1120 1027 978 952 1009 842 1077 1217 1038 971 1132 1138 1037 1289 1228 1232 1081 934 815 357 624 459 360 323 236 252 96 498 587 641 1041 1474 1243 1232 1171 1114 836 957 1015 857 870 938 577 920 961
1552 1518 1397 1106 1149 1131 834 490 424 309 535 829 1059 1116 956 1002 1039 1119 942 929 787 1068 823 771 948 1023 422 535 586 654 880 1217 915 1240 401 582 767 812 1022 672 194 347 237 219 416 570 571 715 1248 1401 1278 1168 981 965 912 842 847 865 915 1039 1249 984
1530 1501 1369 1305 1105 924 666 463 488 562 439 627 676 996 923 956 801 885 873 918 865 748 643 336 611 513 765 1041 750 737 815 719 671 744 284 954 756 887 848 536 382 292 215 171 344 611 752 645 780 1058 975 986 1033 1092 989 825 828 1061 994 1245 1661 911
1444 1445 1447 1036 884 788 516 469 518 752 797 487 786 577 593 766 792 902 850 860 768 345 604 552 734 885 1288 1458 1396 1426 1322 1141 1026 872 686 750 726 764 720 582 538 516 349 160 240 372 711 736 740 623 948 1064 1041 1120 1104 1042 943 1102 1184 1256 1590 845
1642 1417 1284 1018 881 592 627 450 652 618 726 566 667 730 655 685 863 744 840 761 625 612 595 938 1226 1478 1512 1573 1581 1562 1527 1510 1651 1674 1477 1086 936 608 477 491 664 500 507 479 280 228 300 372 600 649 697 987 965 1174 1124 1108 955 1141 1173 1263 1396 962
1478 1426 1248 1062 871 542 519 619 598 691 572 575 786 806 799 756 609 439 766 767 924 906 1008 1544 1642 1680 1805 1975 1837 1789 1870 2094 1833 1827 1801 1919 1740 1811 1366 563 498 462 566 606 666 513 207 211 401 534 567 811 830 920 1069 1092 1154 1185 1258 1259 1475 1379
1428 1222 1191 973 569 466 435 563 562 687 607 772 755 746 731 713 817 728 555 894 1014 1266 1657 1630 1825 1648 1641 1879 1753 1902 2301 2019 2356 2172 2122 2100 1954 1993 1946 1828 1390 496 215 519 514 609 618 318 221 271 496 709 923 1041 1155 1102 1128 1184 1083 1228 1419 1209
1336 1213 1037 750 501 469 458 659 478 606 733 540 750 690 580 687 904 834 824 1189 1439 1517 1644 1475 1333 1395 1564 1775 1995 1705 1741 1866 1993 2173 2268 1881 2093 1978 2106 1942 1868 1870 1065 562 564 681 791 454 372 240 347 635 803 1095 1348 1393 1155 1161 1087 1441 1580 1636
1227 1163 875 687 529 494 571 531 523 662 694 722 843 686 768 892 978 845 969 1444 1406 1513 1427 1594 1641 1527 1684 1764 1854 1746 1809 1725 1862 1948 1926 1994 2128 2094 2136 2005 2113 2142 2126 2034 852 590 689 642 628 399 422 508 631 911 1210 1227 1232 1170 1258 1216 1195 1515
1120 1005 844 627 480 523 738 622 450 723 832 815 857 900 975 1126 1158 1201 1206 1227 1374 1564 1794 1700 1753 1779 1821 1853 1826 1912 2416 2255 1998 1971 1939 1900 1960 1837 2005 2030 2020 1926 1972 1909 1821 1465 716 564 603 610 540 524 646 838 945 1171 1378 1310 1358 1434 1363 1356
1151 1032 807 680 713 596 757 743 764 962 1056 1149 1088 1038 1107 1347 1464 1491 1570 1614 1648 1682 1824 1632 1601 1913 1735 1785 2348 2366 2455 2083 2036 1782 1799 1872 1739 1740 1739 1624 1567 1613 1531 1504 1557 1473 1339 1194 594 473 717 664 666 826 1020 1292 1092 991 1291 1386 1480 1526
1138 1007 965 792 760 820 864 771 1039 1153 1287 1464 1179 1258 1418 1425 1503 1570 1538 1620 1764 1755 1778 1813 1875 1880 1686 1833 1851 1861 1561 1563 1733 1647 1617 1274 1524 1744 1480 1601 1586 1493 1575 1590 1486 1249 1263 1329 1317 1200 909 664 630 657 1122 1281 1124 1325 1384 1496 1477 1698
1156 895 936 944 1198 986 1086 1209 1346 1407 1531 1694 1662 1710 1707 1719 1734 1781 1878 1922 1850 1950 1940 1808 1890 1902 1672 1862 1798 1574 1690 1596 1478 1519 1533 1369 1431 1294 1420 1732 1655 1707 1723 1529 1390 1332 1260 1365 1411 1509 1700 1742 1505 1007 779 912 1163 1280 1171 1221 1266 1636
1012 1058 1314 1343 1433 1379 1440 1684 1704 1740 2028 1987 1872 2027 2005 1974 1997 2038 2202 2239 2020 2019 1876 1995 1993 1863 1863 1966 1652 1548 1430 1519 1550 1544 1479 1337 1275 1081 1179 1277 1212 1615 1846 1475 1252 1309 1313 1358 1515 1663 1819 1989 1969 1752 1326 1059 1260 1296 1315 1412 858 921
1039 1335 1559 1599 1538 1436 1676 1807 1769 1885 1893 1910 1969 2015 1973 1876 2232 2283 2258 2229 2044 1855 1969 1983 1809 1808 1855 1852 1735 1722 1401 1695 1475 1504 1463 1428 1365 1226 1271 1218 1127 1234 1122 1602 1447 1375 1446 1355 1474 1624 1646 1778 1860 1866 1873 1937 1799 1559 1474 1293 627 455
1120 1682 1593 1716 1796 1742 1836 1859 1868 1960 1929 1878 1911 1999 1957 1922 2277 2423 2255 2132 2132 2181 2085 2068 1821 1978 1776 1972 1850 1831 1480 1583 1433 1450 1398 1326 1311 1238 1172 1014 1171 1056 1076 867 1092 1334 1548 1466 1528 1530 1638 1657 1685 1753 1778 1730 1529 1635 1698 1568 1145 1257
1413 1509 1706 1834 1909 1989 1872 1809 1816 1929 1882 1833 1927 1793 2070 2230 2187 2248 2273 2202 2191 2104 1907 2126 1893 2136 2071 1924 1868 1675 1644 1548 1466 1485 1402 1312 1080 1324 1296 1086 1056 1058 980 977 1058 1056 1203 1471 1519 1584 1490 1311 1280 1081 1333 1487 1523 1431 1369 1465 1520 1419
1543 1588 1716 1967 1961 1963 1933 1944 2056 1953 1945 1966 1947 2040 2027 2122 2227 2330 2312 2159 2123 2207 2050 2033 1938 1999 1839 1836 1768 1735 1564 1434 1448 1443 1450 1522 1363 1209 1145 1108 1012 1099 1114 1209 861 904 856 895 889 637 602 918 1194 1184 886 729 1006 1266 1280 1166 1201 1294
1744 1867 1875 1968 2017 2059 2162 2188 2318 2078 2010 1932 1912 1918 2168 2270 2571 2625 2366 2211 2063 2013 2073 2101 1915 1868 1947 1986 1806 1717 1600 1392 1985 1495 1245 1350 1544 1405 1306 1214 1208 1080 1050 1003 955 846 758 791 654 524 466 557 507 650 1181 1238 823 793 974 1184 1238 1318
1796 1871 1789 1827 1913 2308 2034 2196 2043 1950 1911 1878 2014 2256 2658 2529 2699 2377 2279 2312 2119 2159 1896 1980 2154 1970 2234 2130 2191 2012 1543 1662 1594 1844 1424 1365 1253 1205 1149 1118 1089 1002 817 1028 931 1052 1055 875 755 607 660 646 482 445 863 1309 1109 942 1071 1212 1328 1383
1848 1758 1823 1968 1906 2271 2091 2409 2150 1908 2112 1994 2088 2157 2447 2284 2184 2045 2092 2063 1962 2001 1861 2058 2085 2351 2344 2464 2393 1773 2628 1848 2372 2384 1857 2003 1816 1602 1959 1674 1700 1423 1098 1090 974 1042 1055 855 718 683 601 572 575 586 576 882 1211 1524 1446 1386 1593 1537
1902 1741 2007 1844 2184 2290 2290 2229 2060 1890 1835 1978 1879 1852 1896 1892 1776 1836 1709 2035 2066 1965 1987 2052 1922 2217 2210 2631 2672 2685 2528 1907 1687 1630 1475 1500 1381 1279 1552 1410 1570 1870 1703 1334 873 875 967 1150 1489 837 655 614 602 652 724 488 639 702 1163 1671 1767 1776
1684 1887 1846 1914 2331 2280 1842 1883 1978 1723 1725 1730 1879 1915 1732 1752 1658 1756 1687 1789 1923 1773 1955 1861 1922 1954 2186 2297 2365 1996 2140 1788 1558 1477 1502 1622 1662 1680 1565 2329 1982 2207 1934 1924 1385 1207 1131 849 1166 1302 1185 1239 1305 868 618 762 694 661 1553 1755 1489 1638
1820 1866 1696 1625 1835 1776 2140 1996 1620 1705 1710 1697 1650 1681 1593 1682 1677 1430 1713 1811 1721 1974 1646 1758 1716 1699 1633 1508 1504 1460 1484 1395 1433 1381 1472 1460 1449 1548 1136 1404 1306 1598 1434 1426 1753 1425 1651 1197 1584 1850 1709 1660 1737 1484 1324 1069 940 833 720 935 1422 1656
2020 2042 1841 2258 2240 2102 2090 1855 1552 1603 1590 1612 1584 1622 1643 1632 1651 1528 1668 1590 1636 1560 1506 1546 1406 1241 1361 1311 1278 1231 1230 1169 1067 1204 1145 1206 1290 1168 1143 1270 1341 1462 1986 1520 1486 1350 1290 1098 1140 1141 1453 1631 1145 1503 1394 1256 1222 1012 1139 670 908 994
1448 1672 1590 1822 2122 1767 1651 1636 1496 1696 1626 1537 1536 1536 1239 1123 1401 1394 1126 1353 1279 1059 1066 1188 1043 1024 1017 915 853 921 1033 979 982 975 844 966 1197 1207 1260 1226 1269 1240 1257 1377 1402 1472 1463 1614 1517 1277 1445 1608 1439 1662 1282 943 902 1337 1032 954 807 771
2038 2056 1919 1871 1648 1683 1528 1629 1593 1584 1459 1341 1240 1128 1079 1244 1272 1390 1075 1126 1113 1024 910 948 897 770 632 501 470 437 552 609 761 679 772 970 1130 1209 1164 1263 1239 1290 1280 1245 1137 1255 1035 1022 1066 876 1062 838 1082 956 1140 1254 1324 743 874 1258 1021 778
1775 1602 1609 1497 1504 1551 1500 1501 1568 1516 1341 1297 1103 1139 1092 1159 1017 1088 916 830 795 754 601 497 434 547 276 158 266 295 349 437 515 590 649 838 1091 1048 1053 1146 1077 1059 1021 1040 1042 1174 1054 1100 1062 980 1079 956 978 953 928 816 1131 1091 1250 1203 1065 815
1442 1386 1437 1398 1428 1401 1306 1336 1108 1233 1118 1069 1080 998 994 930 760 813 611 558 448 383 264 190 100 107 29 4 22 58 69 213 307 464 484 660 790 732 661 663 801 875 881 792 926 965 1045 1138 1008 880 936 890 916 922 844 1046 592 644 700 739 758 831
1255 1204 1202 1180 1182 1105 948 991 960 986 944 772 714 676 713 516 364 338 257 186 103 124 28 5 4 2 4 4 0 0 2 5 22 56 138 228 434 484 574 700 612 776 843 813 771 781 853 1050 953 995 885 774 728 754 749 666 714 792 744 643 667 714
1019 1011 1002 1049 1035 937 780 745 729 639 585 505 440 384 307 206 75 62 32 36 6 3 2 3 3 3 3 4 0 2 1 1 2 3 4 27 92 228 350 354 464 596 707 759 770 842 865 871 954 930 927 822 830 642 669 665 672 681 654 527 644 487
827 794 680 720 607 355 354 357 335 308 279 235 143 46 11 2 7 6 5 4 4 2 2 0 0 4 3 4 4 4 4 4 4 6 4 7 8 41 175 263 373 470 527 581 579 620 728 748 811 902 909 756 670 749 738 638 605 648 545 468 697 639
708 644 516 402 407 388 413 381 322 30 5 4 3 5 6 5 6 7 6 4 3 5 2 0 0 2 4 3 4 4 3 4 5 6 7 8 8 8 13 50 123 201 292 339 445 474 521 578 629 716 808 745 666 735 702 600 606 731 572 543 594 512
477 425 363 307 265 261 258 275 330 352 278 59 6 5 5 7 7 5 6 5 3 2 4 2 2 4 4 3 4 4 4 5 5 5 5 5 8 8 8 7 11 34 53 82 81 93 125 206 411 584 684 716 734 772 621 641 583 490 498 427 454 446
Wind_Speed
12 10 9 11 12 13 15 18 18 19 20 21 22 24 26 26 25 25 24 23 22 22 24 24 26 25 27 23 24 23 20 17 16 17 19 20 21 23 24 24 23 21 21 20 19 18 21 24 26 27 26 25 23 18 16 16 16 18 17 19 15 22
11 10 11 11 12 12 14 15 17 18 19 20 21 23 23 23 23 22 22 21 19 20 20 21 23 22 22 25 24 20 17 16 16 17 17 19 20 22 23 23 23 22 20 19 22 23 24 25 26 26 26 25 21 16 18 17 16 18 18 18 17 25
12 13 13 13 12 13 14 14 16 17 18 19 20 20 20 20 19 19 20 19 18 19 19 20 19 19 19 21 22 17 14 15 17 18 18 19 19 21 22 22 21 21 21 20 22 23 25 25 25 27 26 24 20 16 18 17 17 18 17 20 18 28
15 14 12 12 12 12 12 13 14 15 16 17 18 17 18 18 17 18 18 18 18 19 19 19 21 22 21 21 22 20 15 17 20 20 19 20 22 21 23 22 21 20 21 nan 21 24 25 25 25 24 24 23 20 18 16 18 17 19 16 21 21 28
15 14 12 12 11 11 11 11 12 14 15 15 16 16 16 16 16 18 18 17 19 19 19 20 20 20 17 18 16 16 17 16 17 19 19 16 19 24 22 21 22 20 19 19 20 22 22 24 23 22 21 22 21 20 17 16 16 16 18 19 26 27
15 13 13 12 10 11 10 10 11 12 14 14 15 16 16 15 16 16 16 17 18 19 18 18 18 18 18 17 17 16 15 17 16 16 18 17 18 18 18 17 17 18 17 17 18 19 21 21 22 21 20 20 21 21 19 17 16 16 16 18 27 28
16 14 14 11 11 10 8 9 10 11 12 14 14 16 16 16 15 16 16 17 17 17 17 18 18 18 18 18 17 16 17 18 19 19 19 17 17 17 15 15 15 16 15 15 16 18 19 20 20 21 21 20 20 22 21 19 17 16 17 18 26 28
17 15 15 12 11 9 9 9 10 11 11 13 15 15 16 16 16 16 16 16 15 15 17 18 17 17 18 17 17 17 16 18 19 20 20 17 19 17 16 14 14 14 14 15 15 17 17 19 21 19 20 21 20 20 22 22 20 17 16 18 21 27
17 15 14 12 10 9 9 9 10 10 11 15 14 15 16 17 16 16 16 16 15 15 16 15 16 16 15 15 16 17 17 17 17 17 18 18 17 16 15 14 14 13 14 13 14 15 15 16 19 21 21 21 20 19 21 22 22 21 18 17 17 26
16 15 14 11 11 10 10 10 11 11 12 14 14 15 18 17 16 17 17 16 16 15 14 14 15 14 15 15 16 16 16 16 16 17 16 16 16 15 14 13 13 12 12 13 12 14 14 15 17 20 21 21 21 19 20 21 22 23 21 19 19 24
15 15 13 11 12 11 11 12 12 12 13 14 15 16 17 17 17 16 17 16 16 14 13 13 12 13 13 13 13 14 14 14 15 15 14 13 13 12 12 12 12 11 11 11 12 13 15 15 16 18 20 21 20 20 19 20 23 23 22 21 21 22
15 14 12 12 12 12 12 13 13 12 14 15 16 16 17 16 16 16 17 16 15 14 13 13 13 13 13 12 12 11 11 11 13 14 13 12 11 11 11 11 12 12 12 12 13 13 14 14 15 16 18 20 20 21 20 19 21 23 23 21 20 20
14 14 13 14 13 14 13 13 13 14 15 15 16 16 16 16 15 16 16 15 14 13 12 13 14 13 13 12 11 10 10 10 12 14 14 13 11 12 12 13 13 13 14 14 14 13 13 13 14 15 15 16 19 19 19 19 20 22 25 24 23 22
14 14 14 14 14 14 13 14 15 15 16 15 15 15 15 15 15 15 15 15 14 14 13 13 14 14 13 12 12 11 9 10 12 14 15 15 14 14 14 14 13 13 14 14 14 14 15 15 14 14 16 16 16 17 18 20 20 21 23 23 23 23
15 15 15 14 13 14 14 15 15 16 16 14 16 15 15 14 14 14 15 15 14 14 13 13 13 12 12 12 12 11 10 11 13 14 15 15 14 14 14 14 14 13 13 13 13 13 12 12 13 13 14 15 16 16 19 19 19 20 21 22 23 23
15 15 14 14 14 15 15 15 16 16 16 15 15 15 15 14 14 14 13 14 15 14 14 15 14 13 13 12 12 12 12 13 14 14 15 15 14 13 13 13 14 14 14 14 14 14 14 13 13 13 13 14 15 16 17 18 18 18 19 20 21 21
15 15 14 15 16 17 17 17 17 16 16 15 15 15 15 15 14 14 13 14 15 15 14 15 15 14 13 13 13 12 14 15 15 15 14 14 13 12 12 11 12 14 14 14 15 15 15 15 13 13 13 14 14 15 16 17 17 17 18 19 19 20
16 15 16 17 18 18 18 17 17 17 16 16 16 15 15 14 14 14 14 15 15 15 14 15 14 14 13 13 13 13 14 15 14 14 14 14 13 13 13 11 10 11 13 15 15 15 15 16 15 14 13 14 14 14 15 17 18 18 17 17 18 18
16 18 18 19 20 19 19 18 19 18 18 17 16 16 15 15 15 15 14 15 15 15 14 14 15 14 13 13 14 14 14 14 14 14 14 13 13 13 13 13 12 11 12 13 14 14 13 13 15 15 15 15 16 15 15 16 16 18 18 17 17 18
17 18 18 19 20 20 19 19 19 19 18 18 17 18 17 16 16 14 15 14 15 15 15 15 15 16 15 14 14 15 16 16 15 14 14 12 12 12 12 11 12 12 11 13 14 14 15 14 15 16 16 16 17 16 17 17 18 18 18 18 18 19
18 17 17 18 19 19 19 19 18 18 18 18 18 18 18 17 16 15 15 15 15 15 15 16 15 16 16 16 15 16 16 16 16 15 14 12 11 10 10 11 12 13 12 12 14 15 14 13 13 14 16 16 16 17 17 18 18 19 19 19 19 19
17 16 16 17 19 19 19 18 17 17 18 19 18 18 19 18 16 16 16 15 15 15 16 17 16 16 16 15 15 15 15 15 15 14 13 12 10 10 9 11 12 13 15 14 13 14 15 14 14 13 12 13 14 17 21 22 21 20 19 20 20 20
15 15 17 18 19 19 18 18 17 19 18 19 19 19 19 18 17 17 16 16 16 16 17 17 17 16 15 15 15 14 14 15 14 15 13 12 10 9 9 10 12 13 14 17 17 17 17 18 14 13 12 12 14 15 22 23 21 20 21 22 22 21
14 15 17 19 20 19 20 20 21 21 21 20 20 21 19 18 18 18 17 17 17 17 16 16 17 16 15 15 13 13 14 15 15 15 13 11 10 9 10 11 13 13 13 14 17 18 19 18 16 14 13 14 12 14 14 20 22 23 25 24 24 23
14 16 18 20 21 21 22 23 24 23 22 22 19 19 19 19 19 18 18 19 19 18 17 16 17 16 16 15 15 15 14 14 14 14 13 11 10 10 10 10 12 13 15 14 14 17 19 19 18 16 13 12 13 16 17 15 16 19 24 25 26 25
17 19 21 21 22 21 20 22 22 21 20 19 19 19 19 19 20 20 20 21 20 20 19 17 17 16 16 16 15 14 13 13 13 13 13 12 11 11 10 10 12 13 15 16 15 16 16 20 19 17 15 14 13 12 11 13 14 17 25 25 24 27
22 22 22 21 21 20 20 21 21 20 19 19 20 22 21 21 21 21 21 22 22 21 20 19 18 16 15 14 13 13 13 13 13 13 13 12 12 11 11 11 12 13 14 16 17 16 16 17 18 18 17 17 15 15 14 14 16 15 15 23 27 28
23 22 23 21 21 22 22 22 21 21 20 20 21 23 22 23 22 22 22 23 23 23 21 20 19 17 15 14 14 13 13 13 13 13 13 12 12 13 13 13 12 12 13 15 15 15 14 15 16 16 17 17 18 18 18 18 18 18 17 16 19 25
24 22 23 21 22 22 22 22 21 22 22 23 24 23 23 22 23 23 23 23 22 21 21 18 17 16 15 14 13 14 14 13 13 13 13 13 14 13 13 13 13 14 14 15 16 16 16 16 16 16 16 16 17 16 17 19 19 21 20 18 17 18
26 25 25 25 25 24 23 22 22 23 24 24 23 23 22 23 22 21 22 22 21 20 19 20 18 18 16 14 14 15 14 14 14 14 15 14 14 14 15 15 15 14 14 14 16 16 16 16 16 16 17 16 15 16 18 19 21 21 21 23 18 17
28 27 27 27 25 25 24 24 24 24 23 24 23 22 22 21 21 20 20 20 19 19 18 19 18 19 19 16 15 16 16 16 16 16 16 16 16 17 17 17 17 16 16 16 17 15 16 16 17 16 16 18 17 17 17 17 18 22 22 21 20 20
29 29 29 28 28 27 26 26 25 24 24 24 22 21 21 21 20 20 20 19 18 19 20 19 19 18 nan nan nan nan nan 17 17 18 17 18 17 17 18 18 18 19 19 18 19 19 18 17 16 18 18 19 19 18 18 19 19 21 20 20 20 18
31 30 29 28 27 26 25 26 25 25 25 24 23 22 21 21 20 19 19 20 18 19 nan nan nan nan nan nan nan nan nan nan nan nan 18 18 18 18 19 19 19 19 19 19 20 20 20 19 18 19 19 19 20 20 20 20 20 21 20 20 20 19
30 29 29 28 28 28 28 27 26 25 24 23 22 21 21 21 nan nan nan nan nan nan nan nan nan nan nan nan nan nan nan nan nan nan nan nan nan 20 20 20 21 21 20 21 21 20 20 19 19 18 19 20 20 20 20 20 21 22 21 21 21 21
29 29 28 28 27 27 27 26 25 24 23 22 22 nan nan nan nan nan nan nan nan nan nan nan nan nan nan nan nan nan nan nan nan nan nan nan nan nan 22 22 22 22 22 22 21 21 21 20 20 20 19 19 19 20 21 21 23 22 23 23 22 22
28 28 28 28 27 26 26 26 26 nan nan nan nan nan nan nan nan nan nan nan nan nan nan nan nan nan nan nan nan nan nan nan nan nan nan nan nan nan nan nan 23 24 23 24 23 21 22 21 20 20 19 21 22 22 22 22 22 23 24 24 25 25
27 28 28 28 28 28 27 27 27 26 26 nan nan nan nan nan nan nan nan nan nan nan nan nan nan nan nan nan nan nan nan nan nan nan nan nan nan nan nan nan nan nan nan nan nan nan 24 23 23 23 23 21 23 24 24 24 25 25 24 25 25 26
Wind_Direction
276 281 281 289 294 297 299 304 303 302 302 298 298 300 300 299 300 298 304 306 317 318 312 309 317 308 320 311 309 315 315 312 314 314 319 323 325 327 327 327 325 324 326 325 333 339 340 338 334 332 334 337 335 335 310 298 299 291 290 295 304 289
262 269 278 286 289 288 297 311 309 309 308 304 303 304 309 308 309 306 304 317 315 312 310 307 307 309 313 317 319 315 314 313 312 311 312 319 321 326 327 326 325 323 323 331 338 337 333 333 333 333 334 338 340 325 306 305 296 291 286 288 289 291
262 262 276 284 283 288 302 301 309 311 306 313 313 321 314 313 316 315 318 316 313 311 313 310 308 304 304 294 304 309 310 313 316 311 310 310 316 319 322 324 324 324 323 333 339 332 329 329 331 334 335 339 340 321 306 299 297 288 289 276 280 293
259 263 271 275 279 288 296 303 310 312 312 313 320 327 320 319 318 315 316 314 314 312 313 316 305 316 325 327 318 317 313 315 316 318 321 332 326 329 328 329 329 329 333 nan 327 324 329 328 328 333 337 335 336 324 313 302 297 290 282 285 280 292
257 261 270 270 275 283 297 312 313 314 317 321 326 327 324 324 320 317 319 318 316 317 321 319 322 323 326 320 319 320 323 327 323 321 333 332 335 328 342 331 330 340 331 327 323 322 324 325 328 333 336 336 333 329 323 310 298 290 289 285 282 292
255 260 266 268 272 276 300 311 314 318 324 327 328 326 325 326 322 321 319 318 318 321 322 319 321 322 322 323 322 315 313 310 317 317 322 331 330 331 334 333 336 333 330 328 324 321 325 324 326 331 335 337 333 330 327 317 308 304 295 290 290 295
255 259 267 264 264 279 299 303 316 322 328 325 327 325 327 326 323 323 321 321 322 322 321 318 321 324 322 323 317 316 315 316 317 318 317 325 324 332 338 335 336 334 329 329 328 327 325 326 326 329 332 336 335 332 327 320 313 309 304 299 293 301
255 260 263 260 260 274 285 301 310 318 331 325 329 330 326 324 320 321 322 320 321 319 318 321 324 324 321 318 317 315 317 316 317 317 318 323 326 329 336 339 337 338 333 325 328 331 331 331 327 329 330 333 335 333 328 324 319 311 304 301 299 305
255 261 261 258 260 265 280 291 302 314 319 329 331 329 325 322 322 317 318 318 320 319 321 323 320 317 314 313 315 315 315 315 314 311 316 322 322 326 332 337 338 341 334 333 331 330 333 334 328 328 330 333 334 332 328 325 321 318 312 301 301 304
254 258 258 254 255 264 274 284 296 305 310 328 323 325 326 325 321 318 317 319 319 321 323 315 315 318 317 317 318 315 315 315 314 316 321 321 323 330 334 333 334 340 343 338 342 338 334 333 334 333 332 333 330 331 328 326 322 320 317 311 305 300
253 255 255 251 253 263 271 278 288 299 312 320 320 325 330 327 324 322 316 318 319 321 318 314 312 315 317 318 316 318 317 318 319 321 326 327 327 330 329 330 330 332 337 342 342 338 335 336 334 335 334 336 333 329 327 324 324 324 323 318 310 305
252 251 249 250 253 261 266 274 285 295 305 309 320 327 328 329 326 322 320 320 320 319 320 319 323 321 322 320 318 314 314 319 323 324 323 323 325 324 326 327 328 333 334 337 341 339 336 336 334 333 332 336 335 332 328 325 325 324 320 317 313 309
248 251 248 248 250 256 260 272 284 289 296 305 318 324 325 325 324 320 319 321 317 321 325 322 321 322 321 320 313 308 309 319 323 321 321 325 326 326 325 327 333 335 336 337 339 338 338 340 343 338 333 332 330 332 329 326 326 324 322 321 318 313
245 246 245 245 248 252 261 270 278 282 288 304 310 319 320 321 321 318 315 317 319 321 325 321 320 322 321 317 312 303 301 313 317 323 329 327 325 322 327 327 333 336 336 339 341 344 341 344 346 344 336 333 332 328 327 330 328 324 322 320 318 316
246 247 245 246 249 253 262 267 273 280 286 296 305 312 315 314 314 311 313 314 320 318 323 321 321 321 321 315 308 302 300 300 310 325 326 320 322 328 329 333 332 338 333 337 344 343 343 347 343 340 340 333 333 332 330 332 331 329 325 321 319 319
249 249 247 247 251 258 263 266 268 272 281 292 299 303 306 309 312 310 313 312 316 318 323 323 326 323 317 314 307 300 292 290 300 313 319 321 324 327 324 327 330 335 337 340 340 342 343 343 341 341 336 333 332 331 331 331 331 329 323 320 321 321
251 249 250 253 257 260 261 264 268 274 282 289 291 295 301 306 310 309 307 307 308 314 325 324 322 319 315 310 307 300 293 289 297 305 313 318 320 317 315 321 329 332 337 336 339 340 339 338 340 338 337 337 332 330 329 327 326 325 324 327 327 324
248 249 250 255 256 258 260 262 267 269 273 279 284 287 296 304 306 305 304 303 310 316 322 320 318 314 310 304 301 297 292 292 297 305 310 314 312 311 311 317 329 332 334 334 333 333 337 338 336 335 334 334 332 329 327 325 324 325 329 332 328 327
251 249 252 257 258 258 262 264 265 268 274 277 282 288 297 300 299 299 301 302 309 315 317 316 311 306 306 305 300 294 291 292 295 300 307 310 311 313 316 318 325 332 333 335 332 332 336 335 336 338 335 335 337 337 332 327 324 326 328 330 329 324
249 249 252 255 256 259 263 266 268 267 272 276 282 287 291 292 297 300 298 304 309 311 313 312 311 309 310 303 299 295 293 294 295 297 299 300 299 302 312 318 326 329 333 334 337 337 337 337 338 341 340 339 341 342 341 335 333 331 327 326 325 322
248 248 250 255 258 260 264 265 266 270 274 280 282 286 288 293 300 297 301 304 308 308 311 312 313 312 311 308 303 299 295 293 294 295 293 293 294 300 309 316 319 324 331 335 336 335 333 334 339 342 338 341 341 343 344 344 343 337 331 326 323 321
243 248 250 253 255 257 260 259 263 268 271 275 280 284 288 292 294 298 304 306 309 311 312 314 314 313 310 307 302 297 296 292 290 289 290 289 293 304 315 319 319 321 328 333 335 330 329 328 338 334 327 328 337 339 343 344 344 342 338 331 328 325
238 247 249 251 252 252 254 255 257 263 267 270 270 269 277 286 293 296 303 307 310 310 313 313 312 312 308 305 301 298 291 291 290 289 291 292 296 302 306 314 324 325 325 334 336 334 336 337 336 328 330 335 335 331 330 336 338 340 339 338 336 334
240 242 246 246 246 245 249 251 253 257 261 262 271 278 284 291 295 301 305 307 306 307 309 310 310 308 303 298 296 293 290 290 292 290 288 287 289 293 301 311 320 326 332 334 337 337 337 337 337 330 330 328 330 330 336 327 328 334 341 343 342 341
236 239 240 243 245 247 250 253 255 260 263 268 272 276 281 285 290 295 299 301 302 303 305 307 306 309 304 301 295 293 293 291 287 287 287 286 287 293 297 302 312 324 331 334 336 333 336 336 340 335 332 329 333 336 333 328 325 336 335 340 344 344
235 237 241 245 247 248 252 251 256 260 265 269 273 275 278 281 285 288 292 293 293 296 300 303 305 304 299 298 295 291 288 285 284 281 278 275 277 282 293 303 308 318 325 330 331 334 337 333 338 340 339 336 332 330 327 322 328 331 325 335 337 337
241 238 244 245 250 251 251 251 255 258 259 263 268 269 269 271 275 282 284 288 291 292 297 300 302 301 296 289 285 282 280 280 278 278 277 276 277 279 284 290 301 315 323 323 329 332 335 332 329 334 337 338 342 338 334 325 324 324 334 329 334 332
241 245 243 246 249 248 251 252 254 255 255 261 264 265 268 268 272 278 283 284 290 293 295 297 297 293 288 282 278 280 281 282 280 277 275 276 277 281 283 289 295 306 315 317 320 323 324 326 330 330 330 332 336 338 341 341 340 334 334 336 332 328
246 249 253 254 251 251 249 250 253 259 263 262 265 267 269 273 278 279 281 283 285 290 294 294 297 295 292 287 288 288 287 289 286 281 282 285 283 280 281 285 294 302 307 310 311 311 314 319 322 325 321 328 329 330 329 330 331 327 331 330 335 329
247 248 250 251 250 250 251 253 256 261 264 266 267 268 271 275 278 281 283 283 286 287 289 295 294 291 290 293 291 289 291 290 290 289 288 287 284 289 290 292 294 295 296 300 305 307 309 308 312 316 321 319 322 323 326 326 326 326 332 334 334 328
247 246 247 247 247 248 248 249 255 260 264 267 267 269 273 276 276 278 277 279 281 282 288 287 292 294 292 292 293 292 291 291 292 294 294 293 293 290 289 290 292 296 301 303 302 301 302 305 305 307 312 313 316 321 322 323 325 323 322 322 326 328
245 245 242 242 243 243 245 247 251 256 258 259 263 265 266 267 268 272 273 276 280 287 288 292 294 297 nan nan nan nan nan 295 295 293 293 292 292 292 291 291 294 297 298 301 303 304 304 302 303 302 307 310 313 314 317 320 319 321 325 326 324 326
244 244 243 243 246 246 248 249 250 251 251 249 248 252 258 263 263 268 274 276 280 284 nan nan nan nan nan nan nan nan nan nan nan nan 290 291 293 292 293 295 298 300 302 302 301 301 302 301 298 300 300 303 306 309 314 313 314 316 316 318 321 322
245 243 244 245 245 247 246 246 245 245 247 250 253 253 258 263 nan nan nan nan nan nan nan nan nan nan nan nan nan nan nan nan nan nan nan nan nan 296 297 300 302 303 303 302 301 301 301 300 299 297 296 299 301 305 304 305 307 307 309 313 316 317
250 248 248 248 247 248 246 243 241 242 243 250 254 nan nan nan nan nan nan nan nan nan nan nan nan nan nan nan nan nan nan nan nan nan nan nan nan nan 298 298 300 300 299 299 298 297 296 296 296 294 296 297 296 298 302 303 305 306 307 309 310 310
256 254 252 251 248 246 246 245 245 nan nan nan nan nan nan nan nan nan nan nan nan nan nan nan nan nan nan nan nan nan nan nan nan nan nan nan nan nan nan nan 297 297 297 296 294 292 291 292 294 295 296 296 297 301 299 299 299 301 303 306 309 310
257 256 254 251 248 248 250 251 250 251 253 nan nan nan nan nan nan nan nan nan nan nan nan nan nan nan nan nan nan nan nan nan nan nan nan nan nan nan nan nan nan nan nan nan nan nan 292 293 292 291 293 296 296 296 297 298 299 300 301 302 305 306